Monroe, NC

2:12 AM EDT on May 25, 2018 (GMT -0400)
Monroe

Weather History for KEQY - July, 2013

Change the Weather History Date:

Friday, July 19, 2013

  Actual Average (WUND) Record (WUND)
Temperature  
Mean Temperature 81 °F -  
Max Temperature 89 °F - - (-1)
Min Temperature 73 °F - - (-1)
Cooling Degree Days 16    
Growing Degree Days 31 (Base 50)    
Moisture  
Dew Point 73 °F    
Average Humidity 76    
Maximum Humidity 100    
Minimum Humidity 55    
Precipitation  
Precipitation 0.00 in - - ()
Sea Level Pressure  
Sea Level Pressure 30.08 in    
Wind  
Wind Speed 6 mph (SSW)    
Max Wind Speed 10 mph    
Max Gust Speed -    
Visibility 9 miles    
Events      
Averages and records for this station are not official NWS values.
T = Trace of Precipitation, MM = Missing Value Source: NWS Daily Summary

Daily Weather History Graph

Daily Weather History Graph

Search for Another Location

Airport or City:

Astronomy

Jul. 19, 2013 Rise Set
Actual Time 6:22 AM EDT 8:34 PM EDT
Civil Twilight 5:53 AM EDT 9:03 PM EDT
Nautical Twilight 5:18 AM EDT 9:38 PM EDT
Astronomical Twilight 4:40 AM EDT 10:16 PM EDT
Moon 5:35 PM EDT (7/19) 3:01 AM EDT (7/19)
Length of Visible Light 15h 09m
Length of Day
14h 12m
Waxing Gibbous, 86% of the Moon is Illuminated
Jul 19
Waxing Gibbous
Jul 22
Full
Jul 29
Last Quarter
Aug 6
New
Aug 14
First Quarter

Hourly Weather History & Observations

Time (EDT) Temp. Heat Index Dew Point Humidity Pressure Visibility Wind Dir Wind Speed Gust Speed Precip Events Conditions
12:53 AM 79.0 °F - 73.0 °F 82% 30.12 in 10.0 mi South 3.5 mph - N/A   Mostly Cloudy
1:53 AM 78.1 °F - 73.9 °F 87% 30.11 in 10.0 mi SW 5.8 mph - N/A   Mostly Cloudy
2:53 AM 77.0 °F - 73.9 °F 90% 30.09 in 9.0 mi SSW 6.9 mph - N/A   Overcast
3:53 AM 77.0 °F - 73.9 °F 90% 30.09 in 9.0 mi SW 4.6 mph - N/A   Overcast
4:53 AM 75.9 °F - 73.0 °F 91% 30.09 in 8.0 mi SW 6.9 mph - N/A   Overcast
5:53 AM 75.0 °F - 73.0 °F 94% 30.09 in 5.0 mi SSW 5.8 mph - N/A   Clear
6:23 AM 73.4 °F - 73.4 °F 100% 30.10 in 4.0 mi SSW 6.9 mph - N/A   Partly Cloudy
6:53 AM 73.9 °F - 73.0 °F 97% 30.10 in 5.0 mi SW 8.1 mph - N/A   Clear
7:53 AM 75.9 °F - 73.0 °F 91% 30.11 in 10.0 mi SW 6.9 mph - N/A   Clear
8:53 AM 79.0 °F - 73.0 °F 82% 30.13 in 10.0 mi SW 9.2 mph - N/A   Clear
9:53 AM 81.0 °F 86.2 °F 73.9 °F 79% 30.13 in 10.0 mi SW 6.9 mph - N/A   Clear
10:50 AM 82.4 °F 88.2 °F 73.4 °F 74% 30.14 in 10.0 mi SW 6.9 mph - N/A   Mostly Cloudy
10:53 AM 84.0 °F 91.2 °F 73.9 °F 72% 30.13 in 10.0 mi SSW 6.9 mph - N/A   Scattered Clouds
11:32 AM 84.2 °F 90.9 °F 73.4 °F 70% 30.13 in 10.0 mi WSW 9.2 mph - N/A   Overcast
11:45 AM 84.2 °F 90.9 °F 73.4 °F 70% 30.13 in 10.0 mi SW 10.4 mph - N/A   Scattered Clouds
11:53 AM 82.9 °F 89.4 °F 73.9 °F 74% 30.13 in 10.0 mi SW 9.2 mph - N/A   Mostly Cloudy
12:53 PM 86.0 °F 93.0 °F 73.0 °F 65% 30.10 in 10.0 mi Variable 6.9 mph - N/A   Scattered Clouds
1:53 PM 88.0 °F 95.6 °F 73.0 °F 61% 30.08 in 10.0 mi SW 9.2 mph - N/A   Partly Cloudy
2:53 PM 89.1 °F 96.0 °F 72.0 °F 57% 30.06 in 10.0 mi Variable 4.6 mph - N/A   Partly Cloudy
3:53 PM 89.1 °F 96.0 °F 72.0 °F 57% 30.04 in 10.0 mi SSW 6.9 mph - N/A   Scattered Clouds
4:53 PM 88.0 °F 93.8 °F 71.1 °F 57% 30.03 in 10.0 mi South 8.1 mph - N/A   Scattered Clouds
5:53 PM 87.1 °F 92.8 °F 71.1 °F 59% 30.01 in 10.0 mi Variable 4.6 mph - N/A   Clear
6:53 PM 86.0 °F 89.4 °F 68.0 °F 55% 30.01 in 10.0 mi South 4.6 mph - N/A   Clear
7:53 PM 84.0 °F 88.4 °F 70.0 °F 63% 30.01 in 10.0 mi Calm Calm - N/A   Clear
8:53 PM 78.1 °F - 72.0 °F 81% 30.01 in 10.0 mi Calm Calm - N/A   Clear
9:53 PM 79.0 °F - 71.1 °F 77% 30.03 in 10.0 mi South 4.6 mph - N/A   Clear
10:53 PM 78.1 °F - 72.0 °F 81% 30.06 in 10.0 mi SSW 4.6 mph - N/A   Clear
11:53 PM 77.0 °F - 71.1 °F 82% 30.06 in 10.0 mi SSW 4.6 mph - N/A   Clear